Regional Weather Roundup
Issued by NWS

Home | Current Version | Previous Version | Graphics & Text | Print | Product List | Glossary On
Versions: 1 2 3 4 5 6 7 8 9 10 11 12 13 14 15 16 17 18 19 20 21 22 23 24 25 26 27 28 29 30 31 32 33 34 35 36 37 38 39 40 41 42 43 44 45 46 47 48 49 50
000
ASUS45 KSLC 021610
RWRUT

UTAH REGIONAL WEATHER ROUNDUP
NATIONAL WEATHER SERVICE SALT LAKE CITY UT
1000 AM MDT SUN AUG 02 2015

UTZ001>011-023>025-021700-

NORTHERN UTAH

CITY           SKY/WX    TMP DP  RH WIND       PRES   REMARKS
BRIGHAM CITY   SUNNY     76  39  25 CALM      30.03S
HILL AFB       SUNNY     76  40  26 E16G22    30.06R
LOGAN          SUNNY     71  39  31 N5        30.07S
OGDEN          MOSUNNY   79  39  23 S14       30.03R
PROVO AIRPORT  MOSUNNY   72  43  35 CALM      30.06S
SALT LAKE CITY PTSUNNY   83  41  22 SE6       30.01R
VERNAL         SUNNY     76  47  35 CALM      30.13S
WENDOVER       PTSUNNY   82  41  23 E5        30.03S
HEBER CITY     PTSUNNY   66  39  37 CALM      30.15F
WEST JORDAN    SUNNY     79  45  29 SE5       30.05S

$$

UTZ012>022-026-027-021700-

SOUTHERN/CENTRAL UTAH

CITY           SKY/WX    TMP DP  RH WIND       PRES   REMARKS
BLANDING       CLOUDY    62  59  90 E5        30.29S
BRYCE CANYON   MOSUNNY   66  51  58 SE16      30.30R
CEDAR CITY     CLOUDY    75  48  38 SW13      30.15R
DELTA          CLOUDY    76  32  20 N3        30.07R
HANKSVILLE     PTSUNNY   79  54  41 E5        30.10R
MILFORD        CLOUDY    75  49  39 S20       30.09R
MOAB/CYNLANDS  SUNNY     78  53  41 E10       30.09S
PRICE          SUNNY     77  49  37 SE8       30.18R
ST GEORGE      PTSUNNY   75  61  60 SE5       30.02S
KANAB          CLOUDY    70  55  60 CALM      30.20F

$$

REGIONAL REPORTS     COLORADO/ARIZONA

CITY           SKY/WX    TMP DP  RH WIND       PRES   REMARKS
CRAIG, CO      MOSUNNY   77  45  32 NE9       30.20F
GRAND JUNCTION CLOUDY    73  51  46 SE13      30.14R
RIFLE          CLOUDY    71  50  47 CALM      30.18S
MONTROSE       CLOUDY    67  56  67 CALM      30.24R
CORTEZ         CLOUDY    65  62  90 NE5       30.24R
PAGE, AZ       CLOUDY    71  62  73 NW7       30.12R
GRAND CANYON   MOSUNNY   71  55  56 CALM      30.25R
KINGMAN        SUNNY     83  53  35 VRB5      30.03S
FLAGSTAFF      SUNNY     69  53  56 W9        30.28R

$$

REGIONAL REPORTS    NEVADA/IDAHO/WYOMING

CITY           SKY/WX    TMP DP  RH WIND       PRES   REMARKS
LAS VEGAS, NV  MOSUNNY   85  54  34 SW6       29.91R
ELY            PTSUNNY   73  42  32 NW7       30.20R
ELKO           CLOUDY    73  45  36 CALM      30.14S
POCATELLO, ID  SUNNY     72  44  36 VRB3      30.07S
BURLEY         SUNNY     77  48  35 CALM      30.03R
EVANSTON, WY   SUNNY     72  30  21 CALM      30.25S
ROCK SPRINGS   SUNNY     72  33  24 CALM      30.23S
KEMMERER       SUNNY     73  30  20 N3        30.26F

$$



USA.gov is the U.S. government's official web portal to all federal, state and local government web resources and services.